User: anonymous   Login
Location: Cactus School
(34.5700°N, 118.0931°W)
Time: 19:56:26
(UTC-08:00)
Language:

N. Korean satellite - Orbit

View from above orbital plane
View from above orbital plane
View from above satellite
View from above satellite

Ground track
Ground track

The orbit data is extracted from the following two-line orbital elements,

1 39026U 12072A   18049.64321650  .00001726  00000-0  67624-4 0  9996
2 39026  97.2146  64.0465 0040390  26.1110 334.2154 15.26369886287578
Epoch (UTC): 18 February 2018 15:26:13
Eccentricity: 0.0040390
inclination: 97.2146°
perigee height: 459 km
apogee height: 514 km
right ascension of ascending node: 64.0465°
argument of perigee: 26.1110°
revolutions per day: 15.26369886
mean anomaly at epoch: 334.2154°
orbit number at epoch: 28757

The dashed part of the orbit path shows where the satellite is in the earth's shadow,  

DLR